Lapse_Rate
7.9 8.1 8.5 8.7 8.7 8.8 8.8 8.9 9.0 9.2 9.1 8.9 7.6 8.0 6.8 7.0 6.8 9.1 9.1 9.4 9.4 9.5 9.5 9.6 9.3 9.5 9.6 9.6 9.4 9.3 9.0 8.8 8.4
7.6 7.9 8.1 8.3 8.7 8.9 9.0 9.0 9.0 9.0 9.0 9.0 8.6 9.2 8.3 7.1 7.1 7.2 9.3 9.2 9.3 9.4 9.1 9.5 8.3 8.2 8.1 8.3 8.9 9.3 9.1 9.4 9.2
7.6 8.1 8.1 8.5 8.6 8.9 9.0 9.4 9.5 9.3 9.3 9.0 9.1 9.4 9.4 8.8 7.5 6.7 7.1 8.2 8.8 8.9 9.0 8.9 7.4 6.9 7.1 7.8 7.9 8.4 7.9 9.2 9.2
7.7 7.9 8.1 8.3 8.6 8.7 8.9 9.2 9.4 9.4 9.2 9.1 9.2 9.4 9.4 9.4 9.4 9.4 7.6 9.0 9.4 7.7 8.0 8.9 7.0 6.3 6.6 7.4 8.4 8.5 7.4 6.5 7.3
7.9 8.1 8.3 8.4 8.6 8.6 8.7 8.8 9.0 9.0 9.1 9.4 9.4 9.3 9.3 9.3 9.4 9.1 9.5 9.4 9.5 9.2 9.4 8.6 6.9 7.5 7.8 7.1 7.6 7.4 8.0 8.0 9.1
7.8 7.9 8.2 8.5 8.7 8.6 8.6 8.7 8.7 8.9 9.1 9.3 9.6 9.3 9.4 9.4 9.4 9.5 9.4 9.5 9.6 9.5 9.4 9.0 9.5 9.3 7.9 6.6 7.2 7.2 7.0 7.2 7.5
7.9 8.0 8.0 8.5 8.6 8.7 8.6 8.7 8.7 8.8 9.1 9.1 9.4 9.5 9.6 9.3 9.4 9.5 9.5 9.5 9.5 9.6 9.5 9.2 8.6 8.3 8.1 7.4 7.2 7.5 6.8 7.0 7.0
7.7 7.9 8.1 8.3 8.3 8.3 8.5 8.5 8.7 8.9 9.2 9.2 9.1 9.0 9.0 9.1 9.3 9.3 8.9 8.5 8.4 8.0 7.9 8.8 9.0 8.1 7.8 7.2 7.0 7.2 7.3 6.8 7.7
7.5 7.7 8.0 8.1 8.3 8.4 8.5 8.5 8.6 8.8 8.9 9.1 9.1 8.9 8.8 9.0 7.2 6.5 7.0 8.1 7.4 8.4 8.4 8.4 8.3 8.7 8.1 8.2 7.5 2.6 1.9 3.1 7.6
7.5 7.8 8.1 8.2 8.3 8.5 8.7 8.8 8.8 8.7 8.9 8.9 7.7 6.3 6.7 7.7 7.3 7.7 9.0 9.2 9.1 9.1 9.0 9.1 9.0 9.1 8.9 8.4 7.3 2.0 1.1 1.3 6.6
7.7 8.0 8.1 8.2 8.7 8.8 8.8 9.1 9.1 9.0 8.9 6.7 6.3 7.6 8.8 9.0 9.0 8.9 8.0 7.7 7.5 7.3 6.7 6.6 6.7 7.6 8.6 8.1 8.2 3.3 1.9 1.5 5.3
8.1 8.2 8.6 8.7 9.0 8.9 8.7 8.8 8.9 8.9 8.8 7.8 8.8 8.8 8.8 8.4 7.8 7.5 7.3 7.0 6.2 6.2 6.0 6.2 6.5 7.9 7.5 7.2 7.4 3.9 1.7 1.5 5.9
8.3 8.5 8.8 8.8 9.0 8.9 9.1 9.0 9.1 8.7 8.8 8.8 8.8 8.8 7.2 6.9 7.3 7.4 7.2 6.7 6.4 5.8 5.8 7.0 9.1 8.0 7.5 7.3 7.3 5.2 3.3 2.0 6.9
8.4 8.5 8.7 8.7 8.8 8.8 9.0 9.2 9.3 8.8 8.8 8.8 9.0 9.0 8.6 7.5 7.0 7.0 7.2 6.4 6.4 6.3 6.4 6.6 6.6 7.6 7.9 7.9 7.2 7.5 3.6 2.3 7.5
8.3 8.3 8.5 8.8 8.5 8.9 9.1 9.2 9.1 8.7 8.7 8.8 7.7 7.1 6.9 6.6 6.7 7.6 8.7 6.5 6.2 6.4 6.6 7.6 8.1 8.0 8.4 9.4 8.3 4.6 4.1 2.0 1.6
8.2 8.4 8.5 8.7 8.8 8.7 9.0 9.1 9.1 8.8 8.4 7.3 7.6 7.9 8.2 9.0 8.5 7.7 6.6 6.4 6.8 7.9 8.3 8.8 8.5 9.0 9.0 9.0 9.5 9.3 6.5 2.1 1.9
8.3 8.6 8.6 8.7 7.3 8.5 8.6 8.8 9.0 8.6 6.9 6.7 6.7 6.5 6.5 6.8 6.3 6.8 7.7 8.6 9.2 9.1 9.1 9.1 9.0 9.0 8.9 9.1 9.2 9.3 9.5 9.1 8.7
8.5 8.4 7.6 8.7 8.6 8.5 8.5 8.3 7.3 8.8 8.2 9.0 8.6 6.8 5.9 6.1 6.8 8.7 9.0 8.6 9.2 9.3 8.8 8.7 9.0 9.2 9.3 9.1 9.1 9.0 3.2 3.2 7.2
8.2 8.4 8.6 8.6 8.7 8.6 8.6 8.5 5.4 5.1 5.0 5.3 5.3 6.1 8.9 8.8 9.0 9.2 9.2 9.2 9.1 6.6 1.7 2.1 0.2 1.1 4.1 9.3 5.6 2.7 1.9 0.1 -0.8
5.9 8.4 7.9 6.4 4.9 4.7 5.0 4.5 5.5 5.7 4.9 5.8 7.0 6.3 7.1 9.1 8.6 9.3 9.1 9.1 9.1 9.0 9.5 -1.2 -0.8 -1.4 -0.7 -1.1 1.4 -0.4 -0.8 -1.4 -1.4
Wind_Speed
9 10 13 16 20 16 16 17 18 18 18 16 17 15 13 11 13 10 10 10 8 7 6 6 5 5 7 9 10 9 9 8 8
9 7 4 7 14 17 16 16 17 18 18 18 17 16 13 12 11 12 10 9 8 8 8 7 9 9 10 10 10 10 9 9 9
10 9 5 8 7 13 15 16 16 16 17 16 15 15 14 12 13 12 11 10 10 10 9 8 8 9 10 11 11 10 8 8 9
12 8 7 5 8 8 11 14 14 16 15 15 13 13 14 12 12 12 12 12 11 11 12 9 8 9 10 9 10 10 9 8 8
12 7 6 6 5 6 7 11 12 13 14 14 13 12 12 11 8 7 9 9 12 12 11 10 9 10 9 9 9 9 10 10 9
13 9 9 8 9 8 9 9 8 9 10 12 14 14 11 10 11 10 10 10 10 9 10 10 11 10 10 10 10 10 9 9 10
15 11 11 11 11 10 10 10 10 9 11 10 10 13 11 10 8 7 5 6 7 8 8 8 10 11 10 11 11 11 10 11 10
16 14 14 12 12 11 11 10 10 9 10 8 4 3 1 2 1 2 4 4 6 7 8 9 10 9 11 10 10 7 11 10 10
18 17 15 15 14 14 13 13 11 10 8 9 7 6 3 3 3 3 4 1 3 5 5 6 8 9 9 9 7 1 4 6 9
19 19 17 18 17 16 14 13 11 11 9 7 7 7 6 7 6 6 3 1 1 2 4 5 6 8 8 7 8 6 2 4 9
22 21 19 18 17 17 16 15 13 11 10 9 9 9 8 7 5 5 4 3 3 3 4 5 6 8 8 8 5 3 1 2 10
21 26 21 18 17 17 15 15 14 13 12 11 10 9 8 7 6 5 3 2 2 3 5 6 7 7 8 8 9 6 4 4 11
21 25 22 19 18 18 15 15 15 13 12 11 9 9 8 7 5 3 1 1 3 3 5 8 7 9 10 11 10 8 5 5 8
19 20 24 21 19 17 16 15 15 13 12 11 10 9 8 6 4 2 2 1 3 6 7 8 9 11 10 11 13 12 9 11 7
9 19 23 20 17 16 16 15 14 13 11 11 10 10 8 6 3 3 5 4 6 8 8 10 10 11 10 11 9 13 12 14 13
4 17 15 16 14 15 14 12 13 13 12 11 9 7 5 3 0 3 4 6 8 8 10 10 11 11 11 11 10 9 5 11 15
11 12 12 13 12 13 11 10 11 12 11 10 9 7 5 1 3 5 7 7 8 9 10 9 11 11 11 10 10 11 10 9 8
11 11 7 12 12 12 12 11 9 10 8 5 2 1 2 1 5 8 7 9 9 9 10 9 10 10 11 12 12 12 11 10 11
12 12 11 11 12 12 11 10 10 10 10 8 5 4 7 4 6 9 10 10 11 9 13 13 13 12 13 12 12 13 14 12 10
12 11 11 9 9 8 7 9 5 3 4 7 2 2 6 8 8 9 10 10 11 12 10 10 13 16 17 16 18 17 14 12 13
Wind_Direction
193 211 200 209 187 199 194 193 186 191 189 194 205 206 209 209 215 222 220 225 249 253 266 269 332 277 262 257 258 258 260 260 248
186 167 161 203 200 186 190 196 196 193 197 194 202 198 203 213 216 230 231 236 216 226 234 258 264 271 273 271 263 256 264 263 265
147 149 166 177 211 188 184 200 191 195 198 196 201 204 196 204 215 222 235 244 234 250 263 262 256 265 265 260 260 253 245 255 246
158 159 160 187 183 202 179 192 201 190 195 200 199 203 202 202 209 219 225 239 234 237 248 245 251 253 259 257 252 245 237 246 271
143 150 143 156 169 176 188 192 195 194 188 203 193 197 204 203 198 237 250 237 239 241 246 256 252 251 252 256 250 248 237 238 244
145 157 155 156 149 159 175 181 189 173 189 202 192 181 178 189 198 218 233 240 232 239 243 247 268 267 253 247 255 255 247 238 246
161 179 164 167 153 146 153 158 158 176 179 197 201 172 193 189 208 219 231 238 243 265 257 261 267 264 265 259 257 256 253 249 243
171 184 181 160 149 141 153 148 154 169 164 168 162 137 168 148 231 314 337 316 295 288 282 276 266 274 273 277 277 271 264 258 255
185 189 186 168 154 159 163 158 160 158 155 147 152 155 201 165 199 223 228 256 263 256 282 289 294 292 292 299 294 45 332 311 280
197 198 189 175 168 171 166 164 164 160 150 150 145 160 170 181 191 188 170 157 2 357 331 330 316 316 317 325 317 147 256 303 282
196 201 197 182 173 171 163 162 160 149 153 156 161 171 165 153 154 121 114 98 43 11 351 335 328 320 321 321 342 113 291 261 286
203 196 200 193 181 165 166 155 151 156 154 159 167 148 139 138 147 142 127 88 31 350 333 325 315 304 314 307 304 176 203 281 299
230 194 192 190 186 148 165 158 158 156 153 156 154 148 151 150 146 143 116 7 315 315 304 292 310 309 304 295 288 287 245 237 291
292 195 182 180 162 155 165 169 155 161 154 162 158 151 145 144 145 167 208 261 294 299 298 304 292 290 285 279 271 265 227 195 258
269 188 164 174 146 164 159 172 157 154 159 133 142 153 154 157 181 289 13 331 300 298 295 286 277 272 271 277 262 232 222 205 212
85 118 127 133 156 158 168 159 159 150 127 143 153 151 154 171 205 298 303 298 288 276 274 285 298 301 301 303 306 308 294 201 213
124 125 143 153 129 146 154 141 137 128 145 151 157 178 156 173 271 281 279 275 284 300 300 307 312 310 310 311 310 302 300 345 352
136 140 115 122 133 143 145 128 107 122 125 118 101 256 183 238 277 261 267 268 284 289 289 287 290 290 295 302 301 301 334 326 317
98 103 115 134 143 143 137 133 120 128 136 138 144 222 273 311 307 295 298 303 301 270 236 240 215 233 248 276 271 275 285 297 299
98 99 97 89 84 87 93 115 138 87 103 112 163 302 301 287 306 301 297 295 299 301 301 219 240 237 240 240 263 287 296 311 298